Wind_Speed
61 61 59 62 62 62 62 57 59 59 56 51 52 51 50 46 46 48 47 50 51 54 60 63 72 71 79 80 82 82 82 86 87 81 79 77 73 72 72 69 68 65 61 55
54 56 64 67 65 63 64 60 62 64 62 58 61 57 58 57 52 52 51 49 52 52 51 56 59 67 70 75 83 82 81 82 85 88 88 85 80 79 77 75 73 69 63 60
62 60 60 59 63 67 69 68 68 67 68 64 68 65 63 66 62 58 57 54 52 52 53 55 55 58 61 67 75 80 85 85 84 84 84 86 88 86 83 85 77 76 72 68
71 71 67 66 62 64 67 72 72 72 71 67 72 68 68 75 69 68 64 61 59 58 55 53 55 56 59 62 64 67 76 83 85 86 87 86 85 84 89 89 85 83 81 77
81 81 80 74 71 67 66 69 70 74 75 76 73 71 75 78 74 72 72 69 67 66 62 60 57 57 57 59 62 62 65 69 77 80 87 87 90 90 87 86 87 88 89 87
90 92 86 83 80 76 71 72 75 72 77 77 72 79 77 90 76 73 70 75 75 74 72 69 66 65 63 62 62 62 64 66 68 73 79 84 85 89 88 88 89 89 88 91
87 94 94 89 88 85 80 78 78 78 77 70 77 84 80 88 86 73 71 79 78 78 78 75 72 71 70 68 66 65 64 64 67 70 70 73 79 87 90 90 91 89 88 90
75 84 91 88 92 91 88 85 81 81 79 76 81 81 92 84 86 79 78 82 86 84 80 79 78 77 76 74 73 70 68 68 66 66 68 71 73 77 79 84 91 92 95 94
71 74 82 84 91 94 94 93 89 88 81 83 81 85 83 81 83 85 85 85 87 88 87 84 82 82 82 80 78 76 74 72 71 69 69 69 71 73 75 79 80 81 87 93
63 70 71 75 85 94 95 97 94 93 92 89 86 87 89 89 80 86 86 86 86 91 91 88 87 84 85 85 81 80 80 78 76 75 73 72 70 69 69 71 77 80 83 81
58 63 66 67 73 84 92 94 96 98 97 94 92 93 95 93 86 97 86 88 86 87 88 88 89 87 88 87 85 83 83 82 83 82 81 79 76 75 75 74 72 72 76 78
53 57 63 63 69 71 81 89 95 97 95 98 99 96 101 99 97 101 96 93 89 88 89 88 88 87 88 89 89 88 90 90 87 88 88 87 84 82 79 78 77 76 74 74
47 57 59 63 66 70 71 76 85 90 95 98 99 101 103 103 105 107 104 98 95 94 93 95 93 92 90 91 92 92 92 92 92 90 91 92 91 89 87 84 81 78 77 76
42 51 56 61 66 67 66 70 77 82 88 89 97 103 108 109 110 109 105 102 104 104 103 102 100 98 95 96 95 95 94 94 95 95 97 95 95 94 94 92 90 87 84 81
36 45 51 56 60 63 66 69 71 72 76 82 84 92 98 102 104 101 105 111 112 111 109 107 105 106 104 103 101 101 100 100 98 98 99 99 99 99 100 100 97 95 93 90
34 39 47 53 56 58 62 64 66 70 73 73 77 82 88 86 84 90 97 102 108 113 113 112 111 112 112 109 107 107 107 107 107 106 106 105 105 104 106 105 103 102 100 98
33 35 41 49 55 56 58 59 60 64 65 68 72 78 78 82 83 86 87 89 90 94 98 103 109 113 115 114 113 113 114 114 114 113 114 114 114 111 113 111 111 108 106 104
36 33 35 42 47 49 51 50 50 52 56 60 65 68 73 77 80 84 84 86 89 90 93 94 95 97 100 104 109 114 117 120 121 121 121 121 121 120 119 118 118 116 113 112
34 31 30 35 39 41 43 44 46 47 48 49 51 54 59 63 68 72 72 76 82 82 86 90 93 96 97 99 101 102 104 107 110 113 118 122 125 126 126 125 124 124 120 117
31 26 26 30 34 36 35 37 36 36 35 37 38 41 45 49 55 59 58 62 64 64 66 69 74 78 83 88 91 94 97 100 103 107 108 110 111 113 116 118 119 120 122 117
29 24 23 26 29 31 30 32 34 33 34 36 39 40 43 48 49 53 52 55 58 58 60 62 65 68 70 73 77 80 84 87 91 94 97 100 101 102 105 104 105 108 108 109
28 23 22 25 27 28 29 31 33 36 39 40 41 42 45 47 49 52 53 52 53 54 56 58 60 63 66 68 70 73 76 78 81 83 85 87 89 91 95 95 94 97 98 99
26 22 20 22 24 25 28 29 34 36 37 38 41 42 43 43 45 46 47 47 48 50 52 53 52 53 58 61 63 66 69 71 74 75 75 74 78 81 83 86 87 92 93 91
28 24 21 20 22 27 27 29 29 30 33 35 39 41 40 40 42 41 41 43 45 46 45 46 48 50 53 55 58 60 62 64 69 72 73 72 68 70 73 76 78 83 86 88
27 23 22 23 25 27 27 28 29 31 33 36 37 36 37 38 39 38 37 36 37 40 42 43 45 48 53 56 58 59 61 64 66 68 69 68 68 66 67 68 70 74 78 84
27 22 23 23 25 25 27 29 32 36 34 32 31 31 30 28 30 30 32 35 37 39 41 44 47 49 54 54 53 54 55 58 62 64 66 66 67 64 63 61 64 68 70 74
Wind_Direction
252 252 253 252 251 250 251 250 249 244 244 243 245 248 250 248 250 253 251 253 251 247 240 237 239 242 242 242 242 241 246 249 251 245 242 242 243 247 249 250 252 255 255 256
254 253 251 250 250 251 252 248 250 249 245 240 247 243 245 246 243 247 252 252 252 252 252 250 244 240 242 242 242 244 244 245 248 251 250 248 245 246 248 250 250 252 251 254
256 254 256 256 254 250 249 249 248 248 247 246 248 246 244 245 244 242 244 242 244 248 251 253 254 252 245 244 242 243 245 245 246 246 249 251 251 250 247 247 248 250 249 249
257 258 254 257 256 255 251 249 247 248 250 245 247 248 247 246 243 242 242 241 241 244 245 248 251 252 253 252 246 245 244 245 246 248 247 246 248 251 252 252 250 248 250 249
256 256 256 253 257 255 254 253 249 249 247 247 246 247 250 247 245 245 246 244 242 243 245 245 247 248 248 251 252 250 247 245 246 248 248 248 249 246 247 250 252 251 251 248
255 254 254 255 254 256 253 250 249 247 248 246 248 247 245 252 241 242 249 251 248 244 244 245 245 247 248 248 248 251 252 248 245 246 247 246 249 248 249 252 251 250 249 250
252 254 252 252 252 253 252 250 250 249 249 250 248 248 248 248 251 243 242 250 250 249 247 246 246 245 248 249 250 249 249 251 251 250 248 248 249 248 248 249 249 250 253 253
254 251 251 248 249 249 248 249 247 249 248 247 246 250 249 249 252 249 244 245 250 250 249 248 248 248 247 249 251 251 252 250 251 253 253 253 250 247 248 251 249 251 251 249
256 252 249 246 246 246 246 246 246 247 248 248 247 249 251 251 250 250 247 244 246 250 249 249 248 248 247 249 250 251 252 252 253 252 251 252 254 253 249 249 250 250 252 251
260 255 250 248 244 245 245 245 246 245 245 247 248 250 250 250 250 252 250 249 246 248 249 249 249 249 247 247 248 250 251 251 251 252 252 252 251 253 254 254 255 252 251 251
261 254 254 249 246 244 244 244 244 244 244 246 247 248 251 252 250 252 250 251 250 250 250 249 249 250 250 248 248 247 250 250 250 250 251 252 253 251 250 250 252 253 256 255
258 250 248 247 246 246 244 243 244 244 244 244 245 246 248 251 250 251 252 248 252 252 253 252 252 250 249 247 248 248 249 249 250 251 250 250 251 252 252 254 254 253 252 255
254 245 245 247 246 245 248 247 245 245 243 245 245 246 248 248 250 250 251 251 251 251 251 252 252 251 251 251 250 248 248 249 251 250 251 253 253 253 254 254 256 256 256 256
259 246 242 243 247 247 246 247 248 246 246 244 246 247 247 248 248 250 253 253 253 253 251 250 251 252 252 253 253 253 252 252 251 251 252 251 252 253 254 255 256 256 256 256
268 253 245 246 246 247 246 246 249 250 250 249 249 248 249 251 253 254 252 251 252 253 253 253 253 253 253 253 253 254 254 254 254 254 254 254 254 253 253 255 256 257 258 258
278 262 253 250 250 249 249 248 248 249 250 251 249 251 253 252 253 252 252 253 254 254 254 254 253 253 252 253 253 254 254 254 254 255 255 255 255 255 256 256 257 258 259 259
288 271 258 253 251 251 251 252 253 252 251 251 251 251 254 254 254 255 254 254 254 254 255 255 254 254 253 253 254 253 253 254 254 254 254 255 255 256 257 257 259 259 259 260
295 279 263 254 255 253 256 255 256 254 254 252 252 252 252 254 255 256 256 257 257 257 257 256 256 256 255 254 253 253 254 254 254 254 254 255 255 254 255 256 258 257 258 260
298 282 265 254 252 253 254 258 259 258 255 255 254 253 253 255 255 256 257 257 258 258 258 258 257 257 257 256 256 255 255 255 255 254 254 254 255 255 255 255 255 257 257 256
303 288 266 253 250 253 257 257 256 253 253 253 253 254 253 253 254 256 256 258 258 258 258 257 257 257 256 257 258 258 259 258 257 256 255 255 254 254 255 255 256 255 257 255
306 295 271 257 254 257 254 255 254 256 257 260 260 263 263 262 262 263 259 257 259 261 260 260 261 261 261 260 259 259 258 258 258 258 258 257 256 255 255 254 253 254 253 253
304 295 275 264 262 262 259 260 261 260 262 263 265 267 267 266 265 264 265 264 263 261 260 261 260 259 260 260 261 261 260 259 258 257 256 256 256 254 254 254 252 253 252 250
303 292 279 272 268 268 268 268 267 264 263 266 271 271 270 268 266 265 264 263 262 261 259 258 260 262 263 264 264 264 264 263 263 262 260 254 253 254 253 252 251 251 251 250
306 293 288 279 275 276 275 273 267 268 270 273 276 277 274 270 270 269 264 261 262 265 268 266 264 265 266 266 266 265 265 264 265 265 264 263 258 253 253 250 249 248 249 248
306 297 285 279 277 277 278 273 275 275 278 281 276 270 265 265 266 269 274 278 277 274 273 273 272 272 271 271 270 268 268 267 266 265 264 263 263 259 255 252 249 247 246 245
305 295 283 279 277 276 278 281 283 285 287 281 275 275 275 275 278 281 282 283 281 281 283 284 283 280 278 276 275 273 269 266 266 265 264 263 263 261 258 254 251 249 248 248
Height
10777 10782 10787 10785 10788 10793 10796 10803 10801 10805 10809 10815 10814 10816 10817 10822 10823 10824 10826 10827 10828 10832 10836 10840 10844 10848 10853 10856 10862 10867 10871 10873 10878 10885 10887 10891 10897 10899 10902 10907 10910 10912 10916 10915
10765 10768 10764 10768 10774 10780 10781 10787 10787 10788 10795 10803 10798 10805 10805 10807 10812 10814 10815 10817 10817 10819 10823 10823 10829 10833 10838 10841 10846 10850 10854 10859 10862 10866 10872 10879 10885 10886 10888 10892 10896 10901 10904 10905
10748 10750 10750 10755 10759 10764 10765 10769 10770 10773 10776 10787 10783 10789 10792 10790 10797 10802 10803 10806 10806 10810 10811 10812 10815 10818 10822 10824 10828 10834 10839 10842 10844 10850 10855 10862 10869 10872 10876 10875 10886 10888 10891 10893
10731 10730 10736 10736 10742 10744 10749 10750 10754 10757 10760 10769 10764 10775 10777 10771 10782 10784 10790 10793 10796 10796 10800 10802 10802 10804 10806 10807 10812 10817 10820 10824 10827 10831 10837 10841 10846 10854 10857 10859 10874 10876 10875 10879
10711 10709 10711 10720 10722 10727 10733 10730 10737 10739 10742 10743 10753 10758 10755 10752 10763 10771 10774 10778 10780 10783 10786 10789 10791 10790 10792 10792 10796 10799 10801 10806 10809 10813 10819 10823 10826 10832 10836 10842 10850 10858 10858 10865
10682 10679 10691 10698 10702 10706 10711 10711 10712 10720 10718 10726 10741 10733 10739 10716 10746 10755 10765 10760 10762 10767 10769 10773 10777 10777 10777 10778 10779 10782 10786 10789 10792 10796 10799 10803 10807 10812 10819 10825 10829 10834 10839 10844
10649 10653 10663 10675 10678 10681 10688 10692 10694 10699 10701 10718 10712 10708 10722 10707 10717 10745 10749 10739 10742 10744 10750 10757 10759 10762 10762 10763 10765 10767 10770 10773 10776 10779 10783 10786 10790 10793 10797 10805 10807 10812 10821 10826
10623 10627 10630 10651 10651 10654 10663 10666 10675 10675 10683 10693 10687 10692 10676 10702 10704 10717 10724 10722 10719 10722 10731 10736 10741 10743 10746 10748 10749 10753 10756 10759 10760 10763 10766 10768 10770 10776 10780 10784 10789 10792 10797 10804
10593 10596 10603 10618 10623 10628 10635 10639 10649 10653 10667 10665 10672 10665 10671 10680 10681 10686 10692 10701 10701 10702 10708 10713 10719 10723 10728 10730 10732 10737 10739 10742 10744 10747 10749 10750 10753 10756 10760 10765 10765 10774 10776 10784
10572 10573 10581 10588 10597 10599 10607 10612 10626 10632 10637 10644 10654 10651 10648 10651 10668 10662 10667 10674 10685 10681 10683 10693 10698 10703 10706 10709 10717 10719 10720 10723 10725 10729 10732 10735 10738 10740 10743 10745 10746 10753 10756 10763
10548 10552 10556 10566 10569 10574 10580 10592 10596 10601 10612 10624 10630 10631 10628 10635 10648 10627 10650 10651 10659 10660 10666 10671 10675 10681 10684 10691 10695 10699 10700 10703 10706 10709 10713 10716 10718 10722 10724 10727 10731 10735 10735 10743
10528 10534 10533 10543 10543 10552 10554 10561 10566 10577 10592 10595 10599 10610 10604 10611 10619 10614 10623 10629 10639 10642 10645 10649 10652 10657 10661 10667 10673 10678 10680 10682 10687 10689 10691 10694 10698 10702 10704 10707 10712 10716 10721 10723
10510 10512 10517 10520 10525 10530 10535 10541 10546 10551 10560 10571 10578 10579 10580 10588 10586 10589 10594 10609 10615 10618 10624 10620 10629 10632 10638 10642 10647 10652 10657 10661 10663 10669 10669 10672 10675 10680 10684 10687 10691 10696 10702 10706
10494 10497 10501 10503 10503 10511 10521 10520 10520 10527 10535 10549 10547 10553 10551 10556 10559 10567 10580 10588 10586 10590 10594 10597 10603 10608 10616 10618 10623 10626 10630 10635 10640 10644 10643 10650 10652 10657 10660 10664 10668 10673 10679 10685
10481 10481 10485 10487 10490 10495 10498 10502 10503 10507 10513 10518 10525 10523 10526 10532 10539 10554 10559 10551 10553 10559 10565 10573 10580 10581 10588 10592 10597 10600 10604 10606 10613 10617 10619 10623 10628 10632 10635 10638 10644 10649 10655 10661
10469 10469 10471 10473 10474 10478 10480 10484 10487 10491 10493 10497 10500 10503 10499 10508 10520 10521 10522 10529 10529 10530 10536 10542 10548 10552 10557 10563 10568 10572 10575 10580 10583 10588 10589 10594 10599 10605 10608 10612 10618 10622 10628 10634
10458 10455 10456 10458 10459 10462 10463 10467 10471 10472 10475 10478 10481 10481 10488 10486 10492 10493 10497 10500 10503 10503 10506 10509 10515 10521 10527 10531 10535 10539 10543 10548 10552 10556 10559 10562 10567 10576 10575 10583 10588 10594 10600 10606
10446 10443 10442 10443 10444 10447 10448 10451 10454 10456 10457 10459 10461 10464 10465 10466 10468 10468 10472 10475 10475 10478 10481 10483 10487 10490 10493 10498 10501 10505 10508 10513 10517 10521 10526 10529 10532 10540 10547 10554 10558 10565 10572 10577
10435 10431 10430 10430 10433 10435 10437 10438 10438 10439 10440 10442 10444 10446 10447 10447 10446 10448 10453 10453 10449 10454 10455 10457 10458 10461 10464 10467 10469 10472 10476 10478 10480 10485 10489 10493 10497 10503 10511 10520 10525 10529 10539 10549
10426 10421 10420 10421 10423 10424 10427 10426 10426 10427 10429 10429 10430 10431 10431 10431 10429 10430 10436 10433 10432 10434 10435 10434 10433 10434 10435 10438 10441 10443 10445 10446 10447 10450 10455 10458 10463 10469 10474 10484 10489 10497 10502 10510
10419 10414 10413 10413 10415 10416 10417 10417 10417 10419 10419 10419 10418 10418 10417 10415 10416 10413 10418 10417 10415 10416 10415 10415 10413 10412 10414 10415 10415 10416 10416 10416 10416 10418 10419 10422 10428 10434 10438 10447 10454 10458 10469 10476
10413 10408 10406 10406 10406 10407 10408 10409 10409 10408 10407 10406 10405 10405 10403 10401 10400 10398 10398 10399 10398 10398 10397 10394 10393 10391 10390 10390 10391 10391 10388 10389 10389 10390 10392 10393 10396 10402 10405 10413 10421 10424 10432 10442
10406 10402 10399 10399 10399 10399 10399 10400 10398 10397 10396 10395 10393 10391 10388 10387 10385 10384 10383 10383 10382 10380 10379 10379 10379 10375 10372 10371 10369 10368 10366 10365 10364 10362 10364 10369 10371 10373 10379 10386 10393 10395 10400 10409
10400 10396 10394 10393 10392 10391 10391 10390 10388 10387 10387 10385 10382 10378 10376 10374 10371 10371 10370 10369 10368 10367 10365 10363 10362 10359 10354 10352 10349 10348 10345 10343 10342 10341 10340 10342 10347 10351 10354 10360 10367 10368 10376 10385
10392 10389 10387 10385 10384 10382 10381 10379 10379 10378 10376 10374 10370 10368 10366 10364 10362 10361 10359 10357 10355 10352 10350 10347 10344 10341 10336 10334 10331 10329 10326 10322 10319 10317 10317 10319 10321 10326 10331 10337 10343 10346 10352 10357
10386 10382 10379 10377 10375 10374 10373 10371 10369 10366 10365 10362 10360 10358 10356 10355 10351 10350 10347 10344 10341 10338 10336 10332 10328 10324 10317 10314 10312 10309 10305 10302 10299 10297 10295 10297 10299 10303 10307 10316 10321 10324 10332 10337